Time,TemperatureF,DewpointF,PressureIn,WindDirection,WindDirectionDegrees,WindSpeedMPH,WindSpeedGustMPH,Humidity,HourlyPrecipIn,Conditions,Clouds,dailyrainin,SoftwareType,DateUTC
2013-04-09 00:03:00,65.0,48.0,30.04,SW,232,4.0,6.0,54,0.00,,,0.00,,2013-04-09 04:03:00,
2013-04-09 00:13:00,65.0,48.0,30.04,SW,232,4.0,6.0,54,0.00,,,0.00,,2013-04-09 04:13:00,
2013-04-09 00:23:00,65.0,48.0,30.04,WSW,240,4.0,6.0,55,0.00,,,0.00,,2013-04-09 04:23:00,
2013-04-09 00:32:00,65.0,49.0,30.04,WSW,252,3.0,6.0,56,0.00,,,0.00,,2013-04-09 04:32:00,
2013-04-09 00:43:00,65.0,49.0,30.04,WSW,252,3.0,6.0,56,0.00,,,0.00,,2013-04-09 04:43:00,
2013-04-09 00:52:00,65.0,49.0,30.04,WSW,252,3.0,6.0,56,0.00,,,0.00,,2013-04-09 04:52:00,
2013-04-09 01:02:00,64.0,49.0,30.04,West,263,4.0,7.0,58,0.00,,,0.00,,2013-04-09 05:02:00,
2013-04-09 01:12:00,64.0,49.0,30.04,West,276,4.0,6.0,59,0.00,,,0.00,,2013-04-09 05:12:00,
2013-04-09 01:22:00,64.0,49.0,30.04,West,276,4.0,6.0,59,0.00,,,0.00,,2013-04-09 05:22:00,
2013-04-09 01:32:00,64.0,49.0,30.04,WSW,257,5.0,9.0,59,0.00,,,0.00,,2013-04-09 05:32:00,
2013-04-09 01:43:00,64.0,49.0,30.04,West,273,4.0,7.0,59,0.00,,,0.00,,2013-04-09 05:43:00,
2013-04-09 01:52:00,64.0,49.0,30.04,West,273,4.0,7.0,59,0.00,,,0.00,,2013-04-09 05:52:00,
2013-04-09 02:02:00,63.0,49.0,30.04,WNW,285,5.0,12.0,60,0.00,,,0.00,,2013-04-09 06:02:00,
2013-04-09 02:12:00,63.0,49.0,30.04,WNW,292,6.0,9.0,60,0.00,,,0.00,,2013-04-09 06:12:00,
2013-04-09 02:22:00,63.0,49.0,30.04,WNW,292,6.0,9.0,60,0.00,,,0.00,,2013-04-09 06:22:00,
2013-04-09 02:32:00,63.0,49.0,30.05,WSW,248,7.0,11.0,60,0.00,,,0.00,,2013-04-09 06:32:00,
2013-04-09 02:42:00,63.0,49.0,30.05,WSW,248,7.0,11.0,60,0.00,,,0.00,,2013-04-09 06:42:00,
2013-04-09 02:52:00,63.0,49.0,30.05,WNW,284,5.0,8.0,61,0.00,,,0.00,,2013-04-09 06:52:00,
2013-04-09 03:02:00,62.0,49.0,30.05,West,281,1.0,7.0,62,0.00,,,0.00,,2013-04-09 07:02:00,
2013-04-09 03:13:00,62.0,49.0,30.05,West,281,1.0,7.0,62,0.00,,,0.00,,2013-04-09 07:13:00,
2013-04-09 03:22:00,62.0,49.0,30.05,WSW,253,4.0,8.0,63,0.00,,,0.00,,2013-04-09 07:22:00,
2013-04-09 03:32:00,62.0,49.0,30.05,SW,234,5.0,8.0,63,0.00,,,0.00,,2013-04-09 07:32:00,
2013-04-09 03:42:00,62.0,49.0,30.05,SW,234,5.0,8.0,63,0.00,,,0.00,,2013-04-09 07:42:00,
2013-04-09 03:53:00,62.0,49.0,30.05,West,259,3.0,8.0,63,0.00,,,0.00,,2013-04-09 07:53:00,
2013-04-09 04:03:00,62.0,49.0,30.05,West,259,6.0,11.0,63,0.00,,,0.00,,2013-04-09 08:03:00,
2013-04-09 04:13:00,62.0,49.0,30.05,West,259,6.0,11.0,63,0.00,,,0.00,,2013-04-09 08:13:00,
2013-04-09 04:22:00,62.0,49.0,30.05,West,262,6.0,11.0,63,0.00,,,0.00,,2013-04-09 08:22:00,
2013-04-09 04:32:00,62.0,50.0,30.06,WSW,257,4.0,11.0,64,0.00,,,0.00,,2013-04-09 08:32:00,
2013-04-09 04:42:00,62.0,50.0,30.06,WSW,257,4.0,11.0,64,0.00,,,0.00,,2013-04-09 08:42:00,
2013-04-09 04:52:00,61.0,49.0,30.06,WSW,253,4.0,8.0,65,0.00,,,0.00,,2013-04-09 08:52:00,
2013-04-09 05:02:00,61.0,49.0,30.07,West,273,4.0,10.0,65,0.00,,,0.00,,2013-04-09 09:02:00,
2013-04-09 05:12:00,61.0,49.0,30.07,West,273,4.0,10.0,65,0.00,,,0.00,,2013-04-09 09:12:00,
2013-04-09 05:22:00,61.0,49.0,30.07,WSW,249,4.0,8.0,65,0.00,,,0.00,,2013-04-09 09:22:00,
2013-04-09 05:33:00,61.0,50.0,30.08,WSW,254,5.0,9.0,66,0.00,,,0.00,,2013-04-09 09:33:00,
2013-04-09 05:43:00,61.0,50.0,30.08,WSW,254,5.0,9.0,66,0.00,,,0.00,,2013-04-09 09:43:00,
2013-04-09 05:53:00,61.0,50.0,30.08,WSW,252,4.0,8.0,66,0.00,,,0.00,,2013-04-09 09:53:00,
2013-04-09 06:03:00,62.0,51.0,30.09,WSW,258,6.0,8.0,66,0.00,,,0.00,,2013-04-09 10:03:00,
2013-04-09 06:13:00,62.0,51.0,30.09,WSW,258,6.0,8.0,66,0.00,,,0.00,,2013-04-09 10:13:00,
2013-04-09 06:23:00,62.0,50.0,30.09,West,269,5.0,8.0,65,0.00,,,0.00,,2013-04-09 10:23:00,
2013-04-09 06:33:00,62.0,51.0,30.10,WNW,282,3.0,10.0,66,0.00,,,0.00,,2013-04-09 10:33:00,
2013-04-09 06:43:00,62.0,51.0,30.10,WNW,282,3.0,10.0,66,0.00,,,0.00,,2013-04-09 10:43:00,
2013-04-09 06:54:00,62.0,51.0,30.10,WNW,283,6.0,11.0,66,0.00,,,0.00,,2013-04-09 10:54:00,
2013-04-09 07:02:00,62.0,51.0,30.11,West,263,3.0,6.0,66,0.00,,,0.00,,2013-04-09 11:02:00,
2013-04-09 07:12:00,62.0,51.0,30.11,West,263,3.0,6.0,66,0.00,,,0.00,,2013-04-09 11:12:00,
2013-04-09 07:22:00,61.0,50.0,30.11,WSW,254,1.0,6.0,66,0.00,,,0.00,,2013-04-09 11:22:00,
2013-04-09 07:32:00,61.0,50.0,30.12,SW,227,5.0,9.0,67,0.00,,,0.00,,2013-04-09 11:32:00,
2013-04-09 07:42:00,61.0,50.0,30.12,SW,227,5.0,9.0,67,0.00,,,0.00,,2013-04-09 11:42:00,
2013-04-09 07:52:00,61.0,50.0,30.12,SW,226,1.0,5.0,67,0.00,,,0.00,,2013-04-09 11:52:00,
2013-04-09 08:02:00,61.0,50.0,30.13,SSW,198,3.0,5.0,67,0.00,,,0.00,,2013-04-09 12:02:00,
2013-04-09 08:12:00,61.0,50.0,30.13,SSW,198,3.0,5.0,67,0.00,,,0.00,,2013-04-09 12:12:00,
2013-04-09 08:22:00,61.0,50.0,30.13,SW,232,4.0,7.0,67,0.00,,,0.00,,2013-04-09 12:22:00,
2013-04-09 08:32:00,61.0,50.0,30.13,WSW,237,5.0,8.0,66,0.00,,,0.00,,2013-04-09 12:32:00,
2013-04-09 08:42:00,61.0,50.0,30.13,WSW,237,5.0,8.0,66,0.00,,,0.00,,2013-04-09 12:42:00,
2013-04-09 08:53:00,62.0,51.0,30.13,SW,221,4.0,8.0,66,0.00,,,0.00,,2013-04-09 12:53:00,
2013-04-09 09:03:00,63.0,51.0,30.13,WSW,253,2.0,8.0,66,0.00,,,0.00,,2013-04-09 13:03:00,
2013-04-09 09:12:00,63.0,51.0,30.13,WSW,253,2.0,8.0,66,0.00,,,0.00,,2013-04-09 13:12:00,
2013-04-09 09:23:00,63.0,51.0,30.13,SW,227,2.0,6.0,65,0.00,,,0.00,,2013-04-09 13:23:00,
2013-04-09 09:33:00,64.0,52.0,30.13,West,279,3.0,7.0,64,0.00,,,0.00,,2013-04-09 13:33:00,
2013-04-09 09:43:00,64.0,52.0,30.13,West,279,3.0,7.0,64,0.00,,,0.00,,2013-04-09 13:43:00,
2013-04-09 09:53:00,65.0,53.0,30.13,WSW,250,5.0,9.0,64,0.00,,,0.00,,2013-04-09 13:53:00,
2013-04-09 10:03:00,65.0,53.0,30.13,WNW,300,5.0,9.0,64,0.00,,,0.00,,2013-04-09 14:03:00,
2013-04-09 10:12:00,65.0,53.0,30.13,WNW,300,5.0,9.0,64,0.00,,,0.00,,2013-04-09 14:12:00,
2013-04-09 10:22:00,65.0,52.0,30.13,SW,231,2.0,8.0,63,0.00,,,0.00,,2013-04-09 14:22:00,
2013-04-09 10:32:00,66.0,53.0,30.13,South,181,2.0,8.0,62,0.00,,,0.00,,2013-04-09 14:32:00,
2013-04-09 10:43:00,66.0,53.0,30.13,South,181,2.0,8.0,62,0.00,,,0.00,,2013-04-09 14:43:00,
2013-04-09 10:52:00,67.0,53.0,30.12,NW,309,3.0,11.0,61,0.00,,,0.00,,2013-04-09 14:52:00,
2013-04-09 11:02:00,68.0,53.0,30.13,South,180,4.0,8.0,59,0.00,,,0.00,,2013-04-09 15:02:00,
2013-04-09 11:13:00,68.0,53.0,30.13,South,180,4.0,8.0,59,0.00,,,0.00,,2013-04-09 15:13:00,
2013-04-09 11:23:00,68.0,53.0,30.13,West,267,1.0,13.0,59,0.00,,,0.00,,2013-04-09 15:23:00,
2013-04-09 11:33:00,68.0,53.0,30.13,NW,306,7.0,12.0,59,0.00,,,0.00,,2013-04-09 15:33:00,
2013-04-09 11:43:00,68.0,53.0,30.13,NW,306,7.0,12.0,59,0.00,,,0.00,,2013-04-09 15:43:00,
2013-04-09 11:54:00,68.0,53.0,30.13,WNW,301,8.0,13.0,59,0.00,,,0.00,,2013-04-09 15:54:00,
2013-04-09 12:03:00,68.0,53.0,30.13,West,265,6.0,12.0,59,0.00,,,0.00,,2013-04-09 16:03:00,
2013-04-09 12:13:00,68.0,53.0,30.13,West,265,6.0,12.0,59,0.00,,,0.00,,2013-04-09 16:13:00,
2013-04-09 12:23:00,69.0,54.0,30.12,West,273,3.0,15.0,58,0.00,,,0.00,,2013-04-09 16:23:00,
2013-04-09 12:33:00,70.0,55.0,30.11,West,279,5.0,12.0,58,0.00,,,0.00,,2013-04-09 16:33:00,
2013-04-09 12:42:00,70.0,55.0,30.11,West,279,5.0,12.0,58,0.00,,,0.00,,2013-04-09 16:42:00,
2013-04-09 12:54:00,70.0,53.0,30.11,WSW,254,6.0,13.0,54,0.00,,,0.00,,2013-04-09 16:54:00,
2013-04-09 13:02:00,72.0,54.0,30.10,SW,215,3.0,11.0,54,0.00,,,0.00,,2013-04-09 17:02:00,
2013-04-09 13:13:00,72.0,54.0,30.10,SW,215,3.0,11.0,54,0.00,,,0.00,,2013-04-09 17:13:00,
2013-04-09 13:23:00,72.0,54.0,30.09,WSW,248,6.0,16.0,53,0.00,,,0.00,,2013-04-09 17:23:00,
2013-04-09 13:32:00,73.0,53.0,30.08,West,279,5.0,16.0,50,0.00,,,0.00,,2013-04-09 17:32:00,
2013-04-09 13:43:00,73.0,53.0,30.08,West,279,5.0,16.0,50,0.00,,,0.00,,2013-04-09 17:43:00,
2013-04-09 13:54:00,74.0,54.0,30.08,WSW,240,5.0,18.0,49,0.00,,,0.00,,2013-04-09 17:54:00,
2013-04-09 14:02:00,74.0,53.0,30.06,WNW,287,4.0,23.0,48,0.00,,,0.00,,2013-04-09 18:02:00,
2013-04-09 14:13:00,74.0,53.0,30.06,WNW,287,4.0,23.0,48,0.00,,,0.00,,2013-04-09 18:13:00,
2013-04-09 14:23:00,74.0,54.0,30.06,SW,227,1.0,15.0,49,0.00,,,0.00,,2013-04-09 18:23:00,
2013-04-09 14:33:00,74.0,53.0,30.05,SW,232,7.0,16.0,48,0.00,,,0.00,,2013-04-09 18:33:00,
2013-04-09 14:43:00,74.0,53.0,30.05,SW,232,7.0,16.0,48,0.00,,,0.00,,2013-04-09 18:43:00,
2013-04-09 14:53:00,75.0,53.0,30.05,WSW,257,6.0,12.0,46,0.00,,,0.00,,2013-04-09 18:53:00,
2013-04-09 15:03:00,75.0,53.0,30.05,WSW,257,6.0,12.0,46,0.00,,,0.00,,2013-04-09 19:03:00,
2013-04-09 15:12:00,75.0,53.0,30.05,WSW,257,6.0,12.0,46,0.00,,,0.00,,2013-04-09 19:12:00,
2013-04-09 15:22:00,75.0,53.0,30.05,WSW,257,6.0,12.0,46,0.00,,,0.00,,2013-04-09 19:22:00,
2013-04-09 15:32:00,76.0,54.0,30.03,South,189,0.0,13.0,46,0.00,,,0.00,,2013-04-09 19:32:00,
2013-04-09 15:42:00,76.0,54.0,30.03,South,189,0.0,13.0,46,0.00,,,0.00,,2013-04-09 19:42:00,
2013-04-09 15:53:00,77.0,53.0,30.03,SW,236,14.0,18.0,44,0.00,,,0.00,,2013-04-09 19:53:00,
2013-04-09 16:02:00,76.0,52.0,30.02,SW,225,11.0,19.0,44,0.00,,,0.00,,2013-04-09 20:02:00,
2013-04-09 16:12:00,76.0,52.0,30.02,SW,225,11.0,19.0,44,0.00,,,0.00,,2013-04-09 20:12:00,
2013-04-09 16:23:00,76.0,53.0,30.01,South,190,5.0,14.0,45,0.00,,,0.00,,2013-04-09 20:23:00,
2013-04-09 16:43:00,76.0,52.0,30.01,WSW,257,12.0,20.0,44,0.00,,,0.00,,2013-04-09 20:43:00,
2013-04-09 16:53:00,77.0,54.0,30.00,WSW,247,6.0,18.0,45,0.00,,,0.00,,2013-04-09 20:53:00,
2013-04-09 17:02:00,77.0,54.0,30.00,SW,214,4.0,21.0,45,0.00,,,0.00,,2013-04-09 21:02:00,
2013-04-09 17:13:00,77.0,54.0,30.00,SW,214,4.0,21.0,45,0.00,,,0.00,,2013-04-09 21:13:00,
2013-04-09 17:23:00,77.0,54.0,30.00,SW,214,4.0,21.0,45,0.00,,,0.00,,2013-04-09 21:23:00,
2013-04-09 17:33:00,77.0,53.0,30.00,SW,234,10.0,13.0,44,0.00,,,0.00,,2013-04-09 21:33:00,
2013-04-09 17:42:00,77.0,53.0,30.00,SW,234,10.0,13.0,44,0.00,,,0.00,,2013-04-09 21:42:00,
2013-04-09 17:53:00,77.0,53.0,29.99,West,262,7.0,14.0,44,0.00,,,0.00,,2013-04-09 21:53:00,
2013-04-09 18:03:00,78.0,54.0,29.99,West,261,9.0,18.0,43,0.00,,,0.00,,2013-04-09 22:03:00,
2013-04-09 18:13:00,78.0,54.0,29.99,West,261,9.0,18.0,43,0.00,,,0.00,,2013-04-09 22:13:00,
2013-04-09 18:23:00,78.0,54.0,29.99,WNW,283,3.0,15.0,43,0.00,,,0.00,,2013-04-09 22:23:00,
2013-04-09 18:33:00,78.0,54.0,29.99,WSW,249,2.0,9.0,44,0.00,,,0.00,,2013-04-09 22:33:00,
2013-04-09 18:42:00,78.0,54.0,29.99,WSW,249,2.0,9.0,44,0.00,,,0.00,,2013-04-09 22:42:00,
2013-04-09 18:54:00,77.0,53.0,29.99,SW,234,6.0,13.0,44,0.00,,,0.00,,2013-04-09 22:54:00,
2013-04-09 19:03:00,77.0,54.0,29.99,West,273,4.0,11.0,45,0.00,,,0.00,,2013-04-09 23:03:00,
2013-04-09 19:13:00,77.0,54.0,29.99,West,273,4.0,11.0,45,0.00,,,0.00,,2013-04-09 23:13:00,
2013-04-09 19:23:00,77.0,53.0,29.98,WSW,241,4.0,7.0,44,0.00,,,0.00,,2013-04-09 23:23:00,
2013-04-09 19:32:00,77.0,54.0,29.98,West,272,4.0,12.0,45,0.00,,,0.00,,2013-04-09 23:32:00,
2013-04-09 19:42:00,77.0,54.0,29.98,West,272,4.0,12.0,45,0.00,,,0.00,,2013-04-09 23:42:00,
2013-04-09 19:53:00,76.0,54.0,29.98,West,263,0.0,8.0,46,0.00,,,0.00,,2013-04-09 23:53:00,
2013-04-09 20:03:00,76.0,54.0,29.98,West,263,0.0,8.0,46,0.00,,,0.00,,2013-04-10 00:03:00,
2013-04-09 20:12:00,76.0,54.0,29.98,West,263,0.0,8.0,46,0.00,,,0.00,,2013-04-10 00:12:00,
2013-04-09 20:23:00,74.0,52.0,29.99,WSW,254,0.0,5.0,47,0.00,,,0.00,,2013-04-10 00:23:00,
2013-04-09 20:33:00,74.0,53.0,29.99,SW,228,1.0,5.0,48,0.00,,,0.00,,2013-04-10 00:33:00,
2013-04-09 20:42:00,74.0,53.0,29.99,SW,228,1.0,5.0,48,0.00,,,0.00,,2013-04-10 00:42:00,
2013-04-09 20:53:00,74.0,53.0,29.99,WSW,239,1.0,4.0,48,0.00,,,0.00,,2013-04-10 00:53:00,
2013-04-09 21:02:00,74.0,53.0,29.98,West,267,1.0,6.0,48,0.00,,,0.00,,2013-04-10 01:02:00,
2013-04-09 21:12:00,74.0,53.0,29.99,WSW,238,0.0,6.0,48,0.00,,,0.00,,2013-04-10 01:12:00,
2013-04-09 21:23:00,74.0,53.0,29.99,WSW,238,0.0,6.0,48,0.00,,,0.00,,2013-04-10 01:23:00,
2013-04-09 21:32:00,73.0,53.0,29.99,WSW,238,0.0,1.0,49,0.00,,,0.00,,2013-04-10 01:32:00,
2013-04-09 21:43:00,73.0,53.0,29.99,WSW,238,0.0,1.0,49,0.00,,,0.00,,2013-04-10 01:43:00,
2013-04-09 21:53:00,73.0,53.0,29.99,SSW,196,2.0,6.0,49,0.00,,,0.00,,2013-04-10 01:53:00,
2013-04-09 22:02:00,73.0,53.0,29.99,SSW,196,0.0,3.0,49,0.00,,,0.00,,2013-04-10 02:02:00,
2013-04-09 22:13:00,73.0,53.0,29.99,SSW,196,0.0,3.0,49,0.00,,,0.00,,2013-04-10 02:13:00,
2013-04-09 22:22:00,73.0,52.0,29.99,SSW,196,0.0,4.0,48,0.00,,,0.00,,2013-04-10 02:22:00,
2013-04-09 22:33:00,72.0,51.0,29.99,WSW,238,2.0,7.0,48,0.00,,,0.00,,2013-04-10 02:33:00,
2013-04-09 22:43:00,72.0,51.0,29.99,WSW,238,2.0,7.0,48,0.00,,,0.00,,2013-04-10 02:43:00,
2013-04-09 22:53:00,72.0,51.0,29.99,WSW,241,1.0,9.0,48,0.00,,,0.00,,2013-04-10 02:53:00,
2013-04-09 23:03:00,72.0,50.0,29.98,West,272,5.0,11.0,46,0.00,,,0.00,,2013-04-10 03:03:00,
2013-04-09 23:12:00,72.0,50.0,29.98,West,272,5.0,11.0,46,0.00,,,0.00,,2013-04-10 03:12:00,
2013-04-09 23:22:00,72.0,50.0,29.98,West,274,6.0,11.0,46,0.00,,,0.00,,2013-04-10 03:22:00,
2013-04-09 23:33:00,72.0,50.0,29.98,West,264,1.0,9.0,46,0.00,,,0.00,,2013-04-10 03:33:00,
2013-04-09 23:43:00,72.0,50.0,29.98,West,264,1.0,9.0,46,0.00,,,0.00,,2013-04-10 03:43:00,
2013-04-09 23:53:00,72.0,51.0,29.98,West,261,4.0,8.0,47,0.00,,,0.00,,2013-04-10 03:53:00,